カタログに戻る

STARLINK-5178

運用中通信VLEO
NORAD 54083·PAYLOAD·🇺🇸 United States

打ち上げ Oct 20, 2022 から Cape Canaveral Space Force Station

Loading…

次のパス (今後24時間)

TLE

最新Source: CelesTrak SupGP

元期: Sep 14, 2026, 21:54 UTC

1 54083C 22136AJ  26257.91298611  .00084243  00000+0  34765-2 0  2577
2 54083  53.1611 203.2195 0001300  92.4980 209.9727 15.23471933    12

AllMySatでSTARLINK-5178をリアルタイム追跡

Download on the App Store